This demonstration page uses our WeatherBlox Daily Observations layout. Learn more.

Left ArrowRight Arrow

39.08367, -84.50855

Hourly Observations for November 18, 2018

Temp ( °F °C ) Dew Point ( °F °C ) Humidity (%) Winds ( mph kmh ) Pressure ( in mb ) Visibility ( mi km ) Precip ( " mm )
12:53 am 00:53 Clear with Mist and Fog 35 1.7 35 1.7 100 100 Calm 30.26 1025 2 3 0.00 0.00
1:16 am 01:16 Clear with Mist and Fog 35 1.7 35 1.7 100 100 Calm 30.27 1025 3 5 0.00 0.00
1:50 am 01:50 Clear with Mist and Fog 34 1 34 1 100 100 Calm 30.27 1025 2 3 0.00 0.00
1:53 am 01:53 Clear with Mist and Fog 34 1.1 34 1.1 100 100 Calm 30.25 1025 2 2 0.00 0.00
2:04 am 02:04 Clear with Fog 34 1.1 34 1.1 100 100 Calm 30.27 1025 1 1 0.00 0.00
2:18 am 02:18 Mostly Clear with Mist and Fog 34 1.1 34 1.1 100 100 Calm 30.27 1025 2 3 0.00 0.00
2:28 am 02:28 Partly Cloudy with Mist and Fog 34 1.1 34 1.1 100 100 Calm 30.27 1025 1 2 0.00 0.00
2:36 am 02:36 Mostly Cloudy with Mist and Fog 34 1.1 34 1.1 100 100 Calm 30.27 1025 3 5 0.00 0.00
2:46 am 02:46 Cloudy with Mist and Fog 34 1.1 34 1.1 100 100 Calm 30.27 1025 2 3 0.00 0.00
2:53 am 02:53 Cloudy with Mist and Fog 34 1.1 34 1.1 100 100 Calm 30.25 1024 2 3 0.00 0.00
3:07 am 03:07 Cloudy with Mist and Fog 34 1.1 34 1.1 100 100 Calm 30.27 1025 3 5 0.00 0.00
3:53 am 03:53 Cloudy with Mist and Fog 37 2.8 36 2.2 96 96 Calm 30.23 1024 6 10 0.00 0.00
4:53 am 04:53 Cloudy 38 3.3 35 1.7 89 89 Calm 30.22 1023 7 11 0.00 0.00
5:53 am 05:53 Mostly Cloudy with Mist and Fog 35 1.7 34 1.1 96 96 Calm 30.22 1023 6 10 0.00 0.00
6:53 am 06:53 Clear with Mist and Fog 35 1.7 35 1.7 100 100 Calm 30.21 1023 6 10 0.00 0.00
7:53 am 07:53 Sunny with Patchy Fog 33 0.6 33 0.6 100 100 Calm 30.22 1023 6 10 0.00 0.00
8:53 am 08:53 Sunny with Mist and Fog 37 2.8 36 2.2 96 96 Calm 30.22 1023 6 10 0.00 0.00
9:53 am 09:53 Sunny 42 5.6 38 3.3 85 85 Calm 30.21 1023 7 11 0.00 0.00
10:53 am 10:53 Sunny 46 7.8 39 3.9 77 77 Calm 30.20 1023 9 14 0.00 0.00
11:53 am 11:53 Sunny 49 9.4 41 5 74 74 Calm 30.18 1022 10 16 0.00 0.00
12:53 pm 12:53 Sunny 54 12.2 42 5.6 64 64 SW 3 6 30.15 1021 10 16 0.00 0.00
1:53 pm 13:53 Sunny 56 13.3 44 6.7 65 65 W 12 19 30.14 1021 10 16 0.00 0.00
2:53 pm 14:53 Cloudy 55 12.8 43 6.1 64 64 W 10 17 30.13 1020 10 16 0.00 0.00
3:53 pm 15:53 Mostly Cloudy 54 12.2 44 6.7 69 69 NW 5 7 30.13 1020 10 16 0.00 0.00
4:53 pm 16:53 Mostly Cloudy 51 10.6 42 5.6 71 71 NNW 7 11 30.13 1020 9 14 0.00 0.00
5:53 pm 17:53 Cloudy 49 9.4 41 5 74 74 NNW 7 11 30.14 1021 9 14 0.00 0.00
6:53 pm 18:53 Cloudy 49 9.4 40 4.4 71 71 N 9 15 30.15 1021 8 13 0.00 0.00
7:53 pm 19:53 Cloudy 47 8.3 39 3.9 74 74 N 9 15 30.17 1022 7 11 0.00 0.00
8:53 pm 20:53 Cloudy with Haze 45 7.2 39 3.9 80 80 N 8 13 30.18 1022 6 10 0.00 0.00
9:53 pm 21:53 Cloudy with Haze 44 6.7 39 3.9 83 83 N 6 9 30.18 1022 6 10 0.00 0.00
10:53 pm 22:53 Mostly Cloudy with Haze 44 6.7 39 3.9 83 83 Calm 30.17 1022 6 10 0.00 0.00
11:07 pm 23:07 Cloudy with Haze 44 6.7 39 3.9 83 83 NNE 5 7 30.18 1022 6 10 0.00 0.00
11:25 pm 23:25 Cloudy with Haze 44 6.7 39 3.9 83 83 N 3 6 30.15 1021 6 10 0.00 0.00
11:53 pm 23:53 Cloudy with Mist and Fog 43 6.1 39 3.9 86 86 NE 3 6 30.16 1021 6 10 0.00 0.00

Powered by AerisWeather